| time (UTC) | temp F | wind direction | speed MPH | gust MPH | rain 1hr in | rain 24hr in | rain mn in | humidity % | barometer mb |
| 20260505204318 | 57 | 294 | 1.0 | 6.0 | 0.00 | 0.05 | 0.00 | 39 | 1009.9 |
| 20260505203820 | 56 | 254 | 0.0 | 3.0 | 0.00 | 0.05 | 0.00 | 42 | 1010.1 |
| 20260505203324 | 57 | 39 | 1.0 | 3.0 | 0.00 | 0.05 | 0.00 | 39 | 1010.2 |
| 20260505202825 | 57 | 314 | 1.0 | 4.0 | 0.00 | 0.05 | 0.00 | 36 | 1010.3 |
| 20260505202328 | 56 | 319 | 1.0 | 4.0 | 0.00 | 0.05 | 0.00 | 40 | 1010.3 |
| 20260505201852 | 56 | 311 | 1.0 | 3.0 | 0.00 | 0.05 | 0.00 | 41 | 1010.3 |
| 20260505201355 | 57 | 310 | 1.0 | 5.0 | 0.00 | 0.05 | 0.00 | 37 | 1010.3 |
| 20260505200856 | 56 | 341 | 1.0 | 5.0 | 0.00 | 0.05 | 0.00 | 42 | 1010.3 |
| 20260505200317 | 56 | 336 | 1.0 | 4.0 | 0.00 | 0.05 | 0.00 | 39 | 1010.2 |
| 20260505195817 | 56 | 285 | 0.0 | 4.0 | 0.00 | 0.05 | 0.00 | 41 | 1010.3 |
| 20260505195344 | 56 | 275 | 1.0 | 4.0 | 0.00 | 0.05 | 0.00 | 38 | 1010.4 |
| 20260505194828 | 57 | 323 | 1.0 | 4.0 | 0.00 | 0.05 | 0.00 | 36 | 1010.5 |
| 20260505194332 | 57 | 332 | 2.0 | 6.0 | 0.00 | 0.05 | 0.00 | 38 | 1010.5 |
| 20260505193856 | 57 | 285 | 2.0 | 6.0 | 0.00 | 0.05 | 0.00 | 37 | 1010.4 |
| 20260505193319 | 57 | 247 | 0.0 | 3.0 | 0.00 | 0.05 | 0.00 | 42 | 1010.4 |
| 20260505192822 | 57 | 331 | 1.0 | 5.0 | 0.00 | 0.05 | 0.00 | 39 | 1010.5 |
| 20260505192327 | 57 | 360 | 1.0 | 4.0 | 0.00 | 0.05 | 0.00 | 37 | 1010.5 |
| 20260505191830 | 56 | 338 | 0.0 | 4.0 | 0.00 | 0.05 | 0.00 | 40 | 1010.5 |
| 20260505191334 | 56 | 289 | 0.0 | 4.0 | 0.00 | 0.05 | 0.00 | 41 | 1010.7 |
| 20260505190818 | 56 | 309 | 2.0 | 4.0 | 0.00 | 0.05 | 0.00 | 37 | 1010.8 |
| 20260505190345 | 56 | 319 | 1.0 | 5.0 | 0.00 | 0.05 | 0.00 | 38 | 1010.8 |
| 20260505185822 | 56 | 209 | 1.0 | 6.0 | 0.00 | 0.05 | 0.00 | 40 | 1010.8 |
| 20260505185326 | 56 | 317 | 1.0 | 6.0 | 0.00 | 0.05 | 0.00 | 39 | 1010.8 |
| 20260505184829 | 56 | 231 | 0.0 | 3.0 | 0.00 | 0.05 | 0.00 | 39 | 1010.7 |
| 20260505184334 | 56 | 280 | 0.0 | 5.0 | 0.00 | 0.05 | 0.00 | 40 | 1010.6 |
| 20260505183832 | 56 | 349 | 2.0 | 5.0 | 0.00 | 0.05 | 0.00 | 38 | 1010.7 |
| 20260505183337 | 56 | 323 | 0.0 | 3.0 | 0.00 | 0.05 | 0.00 | 39 | 1010.8 |
| 20260505182820 | 56 | 295 | 0.0 | 2.0 | 0.00 | 0.05 | 0.00 | 44 | 1010.8 |
| 20260505182325 | 56 | 246 | 0.0 | 2.0 | 0.00 | 0.05 | 0.00 | 43 | 1010.8 |
| 20260505181827 | 56 | 264 | 0.0 | 3.0 | 0.00 | 0.05 | 0.00 | 46 | 1010.9 |
| 20260505181330 | 56 | 257 | 1.0 | 3.0 | 0.00 | 0.05 | 0.00 | 38 | 1010.8 |
| 20260505180832 | 55 | 285 | 1.0 | 5.0 | 0.00 | 0.05 | 0.00 | 39 | 1010.8 |
| 20260505180357 | 55 | 255 | 1.0 | 5.0 | 0.00 | 0.05 | 0.00 | 39 | 1010.8 |
| 20260505175818 | 55 | 259 | 1.0 | 3.0 | 0.00 | 0.05 | 0.00 | 42 | 1010.9 |
| 20260505175320 | 55 | 309 | 1.0 | 3.0 | 0.00 | 0.05 | 0.00 | 40 | 1010.9 |
| 20260505174819 | 55 | 301 | 1.0 | 3.0 | 0.00 | 0.05 | 0.00 | 38 | 1011.0 |
| 20260505174323 | 55 | 296 | 1.0 | 3.0 | 0.00 | 0.05 | 0.00 | 45 | 1011.0 |
| 20260505173824 | 55 | 350 | 0.0 | 3.0 | 0.00 | 0.05 | 0.00 | 42 | 1010.9 |
| 20260505173329 | 55 | 351 | 0.0 | 3.0 | 0.00 | 0.05 | 0.00 | 45 | 1010.9 |
| 20260505172831 | 55 | 308 | 1.0 | 7.0 | 0.00 | 0.05 | 0.00 | 41 | 1010.9 |
| 20260505172335 | 55 | 355 | 1.0 | 4.0 | 0.00 | 0.05 | 0.00 | 41 | 1010.9 |
| 20260505171817 | 55 | 340 | 1.0 | 2.0 | 0.00 | 0.05 | 0.00 | 41 | 1010.9 |
| 20260505171345 | 55 | 303 | 0.0 | 2.0 | 0.00 | 0.05 | 0.00 | 43 | 1010.9 |
| 20260505170827 | 55 | 302 | 1.0 | 3.0 | 0.00 | 0.05 | 0.00 | 38 | 1010.8 |
| 20260505170330 | 55 | 325 | 0.0 | 3.0 | 0.00 | 0.05 | 0.00 | 41 | 1010.9 |
| 20260505165837 | 55 | 5 | 0.0 | 3.0 | 0.00 | 0.05 | 0.00 | 51 | 1010.8 |
| 20260505165319 | 55 | 355 | 1.0 | 3.0 | 0.00 | 0.05 | 0.00 | 42 | 1010.8 |
| 20260505164823 | 55 | 325 | 0.0 | 3.0 | 0.00 | 0.05 | 0.00 | 44 | 1010.9 |
| 20260505164321 | 55 | 333 | 0.0 | 1.0 | 0.00 | 0.05 | 0.00 | 43 | 1010.8 |
| 20260505163822 | 54 | 11 | 0.0 | 2.0 | 0.00 | 0.05 | 0.00 | 44 | 1010.8 |
| 20260505163347 | 54 | 13 | 0.0 | 2.0 | 0.00 | 0.05 | 0.00 | 41 | 1010.8 |
| 20260505162830 | 54 | 323 | 0.0 | 1.0 | 0.00 | 0.05 | 0.00 | 42 | 1010.7 |
| 20260505162335 | 54 | 313 | 0.0 | 2.0 | 0.00 | 0.05 | 0.00 | 47 | 1010.6 |
| 20260505161856 | 54 | 304 | 0.0 | 7.0 | 0.00 | 0.05 | 0.00 | 44 | 1010.7 |
| 20260505161317 | 54 | 285 | 2.0 | 7.0 | 0.00 | 0.05 | 0.00 | 44 | 1010.7 |
| 20260505160819 | 54 | 323 | 0.0 | 2.0 | 0.00 | 0.05 | 0.00 | 44 | 1010.6 |
| 20260505160322 | 54 | 318 | 0.0 | 2.0 | 0.00 | 0.05 | 0.00 | 42 | 1010.6 |
| 20260505153326 | 55 | 360 | 0.0 | 2.0 | 0.00 | 0.05 | 0.00 | 46 | 1010.3 |
| 20260505152828 | 55 | 337 | 0.0 | 2.0 | 0.00 | 0.05 | 0.00 | 43 | 1010.2 |
| 20260505152333 | 55 | 281 | 0.0 | 2.0 | 0.00 | 0.05 | 0.00 | 43 | 1010.2 |
| 20260505151817 | 55 | 338 | 0.0 | 2.0 | 0.00 | 0.05 | 0.00 | 45 | 1010.3 |
| 20260505151341 | 55 | 350 | 0.0 | 2.0 | 0.00 | 0.05 | 0.00 | 42 | 1010.0 |
| 20260505150822 | 54 | 340 | 0.0 | 2.0 | 0.00 | 0.05 | 0.00 | 44 | 1010.0 |
| 20260505150323 | 54 | 334 | 0.0 | 2.0 | 0.00 | 0.05 | 0.00 | 47 | 1010.0 |
| 20260505140320 | 52 | 308 | 0.0 | 2.0 | 0.00 | 0.05 | 0.00 | 55 | 1009.2 |
| 20260505124837 | 46 | 360 | 0.0 | 0.0 | 0.00 | 0.05 | 0.00 | 80 | 1010.6 |
| 20260505124320 | 46 | 360 | 0.0 | 0.0 | 0.00 | 0.05 | 0.00 | 80 | 1010.8 |
| 20260505123824 | 46 | 360 | 0.0 | 0.0 | 0.00 | 0.05 | 0.00 | 80 | 1010.8 |
| 20260505123345 | 46 | 360 | 0.0 | 0.0 | 0.00 | 0.05 | 0.00 | 80 | 1010.6 |
| 20260505122827 | 46 | 360 | 0.0 | 0.0 | 0.00 | 0.05 | 0.00 | 81 | 1010.7 |
| 20260505122350 | 46 | 360 | 0.0 | 0.0 | 0.00 | 0.05 | 0.00 | 80 | 1010.6 |
| 20260505121831 | 46 | 360 | 0.0 | 0.0 | 0.00 | 0.05 | 0.00 | 80 | 1010.5 |
| 20260505121333 | 46 | 360 | 0.0 | 0.0 | 0.00 | 0.05 | 0.00 | 80 | 1010.5 |
| 20260505120857 | 46 | 360 | 0.0 | 0.0 | 0.00 | 0.05 | 0.00 | 80 | 1010.7 |
| 20260505120337 | 45 | 360 | 0.0 | 0.0 | 0.00 | 0.05 | 0.00 | 77 | 1010.5 |
| 20260505115818 | 45 | 360 | 0.0 | 0.0 | 0.00 | 0.05 | 0.00 | 76 | 1010.5 |
| 20260505115322 | 46 | 360 | 0.0 | 0.0 | 0.00 | 0.05 | 0.00 | 75 | 1010.4 |
| 20260505114826 | 46 | 360 | 0.0 | 0.0 | 0.00 | 0.05 | 0.00 | 76 | 1010.3 |
| 20260505114327 | 46 | 360 | 0.0 | 0.0 | 0.00 | 0.05 | 0.00 | 74 | 1010.0 |
| 20260505113826 | 46 | 360 | 0.0 | 0.0 | 0.00 | 0.05 | 0.00 | 70 | 1010.1 |
| 20260505113327 | 47 | 360 | 0.0 | 1.0 | 0.00 | 0.05 | 0.00 | 67 | 1009.9 |
| 20260505112831 | 47 | 360 | 0.0 | 1.0 | 0.00 | 0.05 | 0.00 | 67 | 1010.1 |
| 20260505112335 | 47 | 360 | 0.0 | 4.0 | 0.00 | 0.05 | 0.00 | 64 | 1010.0 |
| 20260505111834 | 47 | 360 | 2.0 | 4.0 | 0.00 | 0.05 | 0.00 | 75 | 1009.7 |
| 20260505111317 | 47 | 360 | 0.0 | 0.0 | 0.00 | 0.05 | 0.00 | 72 | 1010.1 |
| 20260505110820 | 47 | 360 | 0.0 | 0.0 | 0.00 | 0.05 | 0.00 | 72 | 1010.0 |
| 20260505110324 | 47 | 360 | 0.0 | 0.0 | 0.00 | 0.05 | 0.00 | 71 | 1009.8 |
| 20260505101824 | 50 | 360 | 0.0 | 2.0 | 0.00 | 0.05 | 0.00 | 57 | 1009.1 |
| 20260505101327 | 50 | 360 | 0.0 | 2.0 | 0.00 | 0.05 | 0.00 | 56 | 1009.0 |
| 20260505100850 | 51 | 360 | 0.0 | 2.0 | 0.00 | 0.05 | 0.00 | 52 | 1008.5 |
| 20260505100334 | 51 | 360 | 1.0 | 2.0 | 0.00 | 0.05 | 0.00 | 48 | 1008.3 |
| 20260505095817 | 51 | 360 | 0.0 | 1.0 | 0.00 | 0.05 | 0.00 | 51 | 1007.9 |
| 20260505095322 | 51 | 360 | 0.0 | 3.0 | 0.00 | 0.05 | 0.00 | 50 | 1008.0 |
| 20260505094845 | 51 | 360 | 1.0 | 4.0 | 0.00 | 0.05 | 0.00 | 51 | 1008.0 |
| 20260505094327 | 51 | 360 | 0.0 | 4.0 | 0.00 | 0.05 | 0.00 | 50 | 1007.8 |
| 20260505093824 | 51 | 360 | 1.0 | 3.0 | 0.00 | 0.05 | 0.00 | 48 | 1007.9 |
| 20260505093327 | 51 | 360 | 0.0 | 3.0 | 0.00 | 0.05 | 0.00 | 50 | 1008.0 |
| 20260505092850 | 52 | 360 | 1.0 | 6.0 | 0.00 | 0.05 | 0.00 | 49 | 1007.8 |
| 20260505092332 | 51 | 360 | 1.0 | 6.0 | 0.00 | 0.05 | 0.00 | 50 | 1008.1 |
| 20260505091835 | 52 | 360 | 1.0 | 3.0 | 0.00 | 0.05 | 0.00 | 50 | 1007.2 |
| 20260505091318 | 52 | 360 | 1.0 | 3.0 | 0.00 | 0.05 | 0.00 | 49 | 1006.8 |
| 20260505090844 | 52 | 360 | 1.0 | 5.0 | 0.00 | 0.05 | 0.00 | 49 | 1007.8 |
| 20260505090326 | 52 | 360 | 1.0 | 5.0 | 0.00 | 0.05 | 0.00 | 46 | 1007.7 |
| 20260505085830 | 52 | 360 | 2.0 | 6.0 | 0.00 | 0.05 | 0.00 | 46 | 1007.9 |
| 20260505085332 | 52 | 360 | 1.0 | 6.0 | 0.00 | 0.05 | 0.00 | 49 | 1007.9 |
| 20260505084832 | 52 | 360 | 1.0 | 3.0 | 0.00 | 0.05 | 0.00 | 49 | 1007.6 |
| 20260505084336 | 51 | 360 | 1.0 | 3.0 | 0.00 | 0.05 | 0.00 | 52 | 1007.4 |
| 20260505083820 | 51 | 360 | 0.0 | 1.0 | 0.00 | 0.05 | 0.00 | 52 | 1006.9 |
| 20260505083319 | 51 | 360 | 0.0 | 1.0 | 0.00 | 0.05 | 0.00 | 53 | 1006.8 |
| 20260505082824 | 51 | 360 | 0.0 | 2.0 | 0.00 | 0.05 | 0.00 | 54 | 1006.5 |
| 20260505082327 | 51 | 360 | 0.0 | 2.0 | 0.00 | 0.05 | 0.00 | 53 | 1006.4 |
| 20260505081829 | 51 | 360 | 0.0 | 1.0 | 0.00 | 0.05 | 0.00 | 53 | 1006.8 |
| 20260505081334 | 51 | 360 | 0.0 | 1.0 | 0.00 | 0.05 | 0.00 | 52 | 1006.9 |
| 20260505080836 | 51 | 360 | 0.0 | 1.0 | 0.00 | 0.05 | 0.00 | 53 | 1006.5 |
| 20260505080319 | 52 | 360 | 0.0 | 1.0 | 0.00 | 0.05 | 0.00 | 55 | 1006.7 |
| 20260505075820 | 52 | 360 | 0.0 | 2.0 | 0.00 | 0.05 | 0.00 | 54 | 1006.9 |
| 20260505075322 | 52 | 360 | 0.0 | 2.0 | 0.00 | 0.05 | 0.00 | 55 | 1007.1 |
| 20260505074825 | 51 | 360 | 0.0 | 3.0 | 0.00 | 0.05 | 0.00 | 56 | 1007.3 |
| 20260505074350 | 51 | 360 | 0.0 | 3.0 | 0.00 | 0.05 | 0.00 | 56 | 1007.3 |
| 20260505073827 | 51 | 360 | 1.0 | 3.0 | 0.00 | 0.05 | 0.00 | 56 | 1007.5 |
| 20260505073342 | 51 | 360 | 0.0 | 2.0 | 0.00 | 0.05 | 0.00 | 56 | 1007.1 |
| 20260505072824 | 52 | 360 | 0.0 | 2.0 | 0.00 | 0.05 | 0.00 | 57 | 1006.8 |
| 20260505072328 | 52 | 360 | 0.0 | 1.0 | 0.00 | 0.05 | 0.00 | 56 | 1006.7 |
| 20260505071829 | 52 | 360 | 0.0 | 1.0 | 0.00 | 0.05 | 0.00 | 55 | 1006.6 |
| 20260505071332 | 53 | 360 | 0.0 | 0.0 | 0.00 | 0.05 | 0.00 | 55 | 1006.5 |
| 20260505070834 | 53 | 360 | 0.0 | 1.0 | 0.00 | 0.05 | 0.00 | 53 | 1006.6 |
| 20260505070317 | 54 | 360 | 0.0 | 1.0 | 0.00 | 0.05 | 0.00 | 51 | 1006.5 |
| 20260505065819 | 54 | 360 | 0.0 | 1.0 | 0.00 | 0.05 | 0.00 | 51 | 1006.4 |
| 20260505065321 | 54 | 360 | 0.0 | 2.0 | 0.00 | 0.05 | 0.00 | 50 | 1006.4 |
| 20260505064844 | 54 | 360 | 0.0 | 2.0 | 0.00 | 0.05 | 0.00 | 50 | 1006.2 |
| 20260505064326 | 54 | 360 | 0.0 | 2.0 | 0.00 | 0.05 | 0.00 | 50 | 1006.3 |
| 20260505063829 | 54 | 360 | 0.0 | 3.0 | 0.00 | 0.05 | 0.00 | 51 | 1006.1 |
| 20260505063333 | 54 | 360 | 0.0 | 3.0 | 0.00 | 0.05 | 0.00 | 50 | 1005.9 |
| 20260505062852 | 54 | 360 | 0.0 | 2.0 | 0.00 | 0.05 | 0.00 | 52 | 1005.6 |
| 20260505062334 | 55 | 360 | 1.0 | 5.0 | 0.00 | 0.05 | 0.00 | 50 | 1005.3 |
| 20260505061836 | 55 | 360 | 1.0 | 5.0 | 0.00 | 0.05 | 0.00 | 50 | 1005.0 |
| 20260505061319 | 55 | 313 | 1.0 | 3.0 | 0.00 | 0.05 | 0.00 | 51 | 1005.0 |
| 20260505060821 | 55 | 96 | 1.0 | 3.0 | 0.00 | 0.05 | 0.00 | 49 | 1005.0 |
| 20260505060323 | 55 | 298 | 1.0 | 4.0 | 0.00 | 0.05 | 0.00 | 49 | 1004.7 |
| 20260505055823 | 56 | 5 | 1.0 | 4.0 | 0.00 | 0.05 | 0.00 | 50 | 1004.6 |
| 20260505055345 | 56 | 317 | 1.0 | 6.0 | 0.00 | 0.05 | 0.00 | 50 | 1004.7 |
| 20260505054848 | 56 | 288 | 2.0 | 6.0 | 0.00 | 0.05 | 0.00 | 46 | 1004.7 |
| 20260505054352 | 57 | 307 | 1.0 | 4.0 | 0.00 | 0.05 | 0.00 | 46 | 1004.5 |
| 20260505053828 | 57 | 293 | 2.0 | 4.0 | 0.00 | 0.05 | 0.00 | 45 | 1004.5 |
| 20260505053332 | 57 | 298 | 2.0 | 4.0 | 0.00 | 0.05 | 0.00 | 45 | 1004.3 |
| 20260505052832 | 57 | 306 | 1.0 | 2.0 | 0.00 | 0.05 | 0.00 | 45 | 1004.0 |
| 20260505052336 | 57 | 317 | 1.0 | 3.0 | 0.00 | 0.05 | 0.05 | 46 | 1004.0 |
| 20260505051818 | 57 | 321 | 1.0 | 3.0 | 0.00 | 0.05 | 0.05 | 46 | 1003.9 |
| 20260505051321 | 58 | 301 | 1.0 | 5.0 | 0.00 | 0.05 | 0.05 | 45 | 1003.7 |
| 20260505050822 | 58 | 295 | 2.0 | 5.0 | 0.00 | 0.05 | 0.05 | 45 | 1003.7 |
| 20260505050345 | 58 | 307 | 1.0 | 4.0 | 0.00 | 0.05 | 0.05 | 45 | 1003.7 |
| 20260505041332 | 59 | 311 | 1.0 | 3.0 | 0.00 | 0.05 | 0.05 | 42 | 1003.6 |
| 20260505040834 | 59 | 313 | 1.0 | 3.0 | 0.00 | 0.05 | 0.05 | 44 | 1003.6 |
| 20260505040337 | 60 | 301 | 1.0 | 4.0 | 0.00 | 0.05 | 0.05 | 43 | 1003.6 |
| 20260505035818 | 60 | 300 | 1.0 | 4.0 | 0.00 | 0.05 | 0.05 | 45 | 1003.6 |
| 20260505035323 | 60 | 300 | 1.0 | 4.0 | 0.00 | 0.05 | 0.05 | 44 | 1003.6 |
| 20260505034826 | 60 | 290 | 1.0 | 6.0 | 0.00 | 0.05 | 0.05 | 45 | 1003.6 |
| 20260505034328 | 61 | 324 | 2.0 | 6.0 | 0.00 | 0.05 | 0.05 | 46 | 1003.6 |
| 20260505033830 | 60 | 296 | 1.0 | 6.0 | 0.00 | 0.05 | 0.05 | 43 | 1003.7 |
| 20260505033334 | 61 | 306 | 1.0 | 6.0 | 0.00 | 0.05 | 0.05 | 46 | 1003.6 |
| 20260505032837 | 61 | 311 | 2.0 | 9.0 | 0.00 | 0.05 | 0.05 | 45 | 1003.7 |
| 20260505032320 | 61 | 314 | 1.0 | 3.0 | 0.00 | 0.05 | 0.05 | 43 | 1003.5 |
| 20260505031819 | 62 | 303 | 1.0 | 3.0 | 0.00 | 0.05 | 0.05 | 44 | 1003.4 |
| 20260505031342 | 62 | 347 | 1.0 | 6.0 | 0.00 | 0.05 | 0.05 | 45 | 1003.5 |
| 20260505030825 | 63 | 335 | 2.0 | 6.0 | 0.00 | 0.05 | 0.05 | 44 | 1003.3 |
| 20260505030349 | 63 | 290 | 1.0 | 4.0 | 0.00 | 0.05 | 0.05 | 45 | 1003.2 |
| 20260505025833 | 63 | 313 | 1.0 | 10.0 | 0.00 | 0.05 | 0.05 | 45 | 1003.2 |
| 20260505025356 | 63 | 321 | 1.0 | 10.0 | 0.00 | 0.05 | 0.05 | 46 | 1003.0 |
| 20260505024838 | 63 | 307 | 1.0 | 3.0 | 0.00 | 0.05 | 0.05 | 48 | 1002.7 |
| 20260505024320 | 63 | 331 | 0.0 | 1.0 | 0.00 | 0.05 | 0.05 | 47 | 1002.7 |
| 20260505023824 | 63 | 331 | 0.0 | 1.0 | 0.00 | 0.05 | 0.05 | 47 | 1002.5 |
| 20260505023345 | 64 | 313 | 0.0 | 2.0 | 0.00 | 0.05 | 0.05 | 46 | 1002.5 |
| 20260505022849 | 64 | 317 | 0.0 | 2.0 | 0.00 | 0.05 | 0.05 | 46 | 1002.5 |
| 20260505022333 | 64 | 306 | 0.0 | 3.0 | 0.00 | 0.05 | 0.05 | 45 | 1002.4 |
| 20260505021835 | 64 | 296 | 0.0 | 3.0 | 0.00 | 0.05 | 0.05 | 45 | 1002.3 |
| 20260505021318 | 65 | 274 | 0.0 | 3.0 | 0.00 | 0.05 | 0.05 | 48 | 1002.3 |
| 20260505020817 | 65 | 274 | 1.0 | 3.0 | 0.00 | 0.05 | 0.05 | 46 | 1002.1 |
| 20260505020323 | 66 | 296 | 1.0 | 5.0 | 0.00 | 0.05 | 0.05 | 47 | 1002.1 |
| 20260505015827 | 66 | 317 | 1.0 | 5.0 | 0.00 | 0.05 | 0.05 | 45 | 1001.8 |
| 20260505015352 | 66 | 326 | 1.0 | 4.0 | 0.00 | 0.05 | 0.05 | 45 | 1001.6 |
| 20260505014833 | 65 | 284 | 2.0 | 4.0 | 0.00 | 0.05 | 0.05 | 50 | 1001.6 |
| 20260505014337 | 65 | 289 | 1.0 | 3.0 | 0.00 | 0.05 | 0.05 | 53 | 1001.2 |
| 20260505013820 | 64 | 324 | 1.0 | 3.0 | 0.00 | 0.05 | 0.05 | 63 | 1001.0 |
| 20260505013342 | 64 | 360 | 0.0 | 1.0 | 0.00 | 0.05 | 0.05 | 68 | 1001.0 |
| 20260505012825 | 65 | 116 | 0.0 | 1.0 | 0.00 | 0.05 | 0.05 | 67 | 1000.9 |
| 20260505012329 | 65 | 121 | 0.0 | 2.0 | 0.00 | 0.05 | 0.05 | 66 | 1000.9 |
| 20260505011833 | 66 | 160 | 0.0 | 2.0 | 0.00 | 0.05 | 0.05 | 68 | 1000.7 |
| 20260505011337 | 66 | 171 | 1.0 | 2.0 | 0.00 | 0.05 | 0.05 | 65 | 1000.7 |
| 20260505010836 | 66 | 346 | 0.0 | 3.0 | 0.00 | 0.05 | 0.05 | 64 | 1000.8 |
| 20260505010320 | 67 | 202 | 0.0 | 3.0 | 0.00 | 0.05 | 0.05 | 65 | 1000.5 |
| 20260505005846 | 67 | 261 | 0.0 | 2.0 | 0.00 | 0.05 | 0.05 | 63 | 1000.0 |
| 20260505005327 | 67 | 302 | 0.0 | 3.0 | 0.00 | 0.05 | 0.05 | 63 | 1000.0 |
| 20260505004832 | 67 | 250 | 0.0 | 3.0 | 0.00 | 0.05 | 0.05 | 65 | 999.8 |
| 20260505004356 | 67 | 229 | 0.0 | 2.0 | 0.00 | 0.05 | 0.05 | 64 | 999.6 |
| 20260505003819 | 67 | 17 | 0.0 | 1.0 | 0.00 | 0.05 | 0.05 | 64 | 999.3 |
| 20260505003322 | 67 | 263 | 0.0 | 2.0 | 0.00 | 0.05 | 0.05 | 63 | 999.1 |
| 20260505002821 | 67 | 302 | 0.0 | 5.0 | 0.02 | 0.05 | 0.05 | 63 | 998.9 |
| 20260505002323 | 67 | 176 | 0.0 | 5.0 | 0.02 | 0.05 | 0.05 | 63 | 998.8 |
| 20260505001827 | 67 | 134 | 0.0 | 3.0 | 0.02 | 0.05 | 0.05 | 62 | 998.8 |
| 20260505001331 | 67 | 97 | 0.0 | 3.0 | 0.02 | 0.05 | 0.05 | 61 | 998.4 |
| 20260505000833 | 66 | 118 | 1.0 | 3.0 | 0.02 | 0.05 | 0.05 | 61 | 998.2 |
| 20260505000335 | 66 | 171 | 0.0 | 2.0 | 0.02 | 0.05 | 0.05 | 63 | 998.2 |
| 20260504235857 | 66 | 155 | 0.0 | 2.0 | 0.02 | 0.05 | 0.05 | 63 | 998.1 |
| 20260504235319 | 66 | 169 | 0.0 | 2.0 | 0.02 | 0.05 | 0.05 | 65 | 998.1 |
| 20260504234823 | 65 | 126 | 0.0 | 2.0 | 0.02 | 0.05 | 0.05 | 66 | 998.0 |
| 20260504234327 | 65 | 155 | 0.0 | 2.0 | 0.02 | 0.05 | 0.05 | 68 | 998.0 |
| 20260504233831 | 64 | 170 | 0.0 | 2.0 | 0.02 | 0.05 | 0.05 | 71 | 998.0 |
| 20260504233335 | 64 | 112 | 1.0 | 2.0 | 0.02 | 0.05 | 0.05 | 73 | 998.1 |
| 20260504232818 | 63 | 123 | 0.0 | 2.0 | 0.00 | 0.03 | 0.03 | 78 | 998.4 |
| 20260504232321 | 63 | 142 | 1.0 | 2.0 | 0.00 | 0.03 | 0.03 | 77 | 998.8 |
| 20260504231820 | 63 | 15 | 0.0 | 3.0 | 0.01 | 0.03 | 0.03 | 80 | 998.4 |
| 20260504231324 | 63 | 157 | 1.0 | 3.0 | 0.03 | 0.03 | 0.03 | 80 | 998.2 |
| 20260504230826 | 63 | 219 | 0.0 | 2.0 | 0.03 | 0.03 | 0.03 | 79 | 998.3 |
| 20260504230331 | 63 | 214 | 1.0 | 2.0 | 0.03 | 0.03 | 0.03 | 77 | 998.3 |
| 20260504225834 | 64 | 292 | 0.0 | 1.0 | 0.03 | 0.03 | 0.03 | 79 | 998.0 |
| 20260504225337 | 64 | 292 | 0.0 | 1.0 | 0.03 | 0.03 | 0.03 | 76 | 998.0 |
| 20260504224820 | 64 | 292 | 0.0 | 5.0 | 0.03 | 0.03 | 0.03 | 74 | 998.2 |
| 20260504224323 | 64 | 312 | 1.0 | 6.0 | 0.03 | 0.03 | 0.03 | 71 | 998.4 |
| 20260504223828 | 65 | 299 | 2.0 | 6.0 | 0.03 | 0.03 | 0.03 | 69 | 998.7 |
| 20260504223332 | 65 | 279 | 3.0 | 6.0 | 0.03 | 0.03 | 0.03 | 70 | 999.1 |
| 20260504222856 | 66 | 286 | 2.0 | 7.0 | 0.03 | 0.03 | 0.03 | 70 | 998.9 |
| 20260504222317 | 67 | 282 | 2.0 | 7.0 | 0.03 | 0.03 | 0.03 | 66 | 999.0 |
| 20260504221822 | 69 | 273 | 1.0 | 8.0 | 0.02 | 0.02 | 0.02 | 66 | 998.9 |
| 20260504221343 | 71 | 296 | 3.0 | 8.0 | 0.00 | 0.00 | 0.00 | 61 | 998.4 |
| 20260504220823 | 72 | 103 | 0.0 | 2.0 | 0.00 | 0.00 | 0.00 | 64 | 997.9 |
| 20260504220327 | 73 | 103 | 0.0 | 2.0 | 0.00 | 0.00 | 0.00 | 61 | 997.8 |
| 20260504215830 | 74 | 5 | 0.0 | 0.0 | 0.00 | 0.00 | 0.00 | 59 | 997.8 |
| 20260504215334 | 74 | 9 | 0.0 | 0.0 | 0.00 | 0.00 | 0.00 | 57 | 997.8 |
| 20260504214836 | 75 | 9 | 0.0 | 4.0 | 0.00 | 0.00 | 0.00 | 53 | 997.8 |
| 20260504214321 | 76 | 5 | 0.0 | 6.0 | 0.00 | 0.00 | 0.00 | 51 | 997.9 |
| 20260504213823 | 77 | 244 | 1.0 | 4.0 | 0.00 | 0.00 | 0.00 | 41 | 998.5 |
| 20260504213329 | 77 | 355 | 0.0 | 3.0 | 0.00 | 0.00 | 0.00 | 39 | 997.9 |
| 20260504212854 | 78 | 306 | 0.0 | 4.0 | 0.00 | 0.00 | 0.00 | 37 | 997.9 |
| 20260504212335 | 78 | 306 | 1.0 | 4.0 | 0.00 | 0.00 | 0.00 | 38 | 998.0 |
| 20260504211839 | 79 | 315 | 0.0 | 11.0 | 0.00 | 0.00 | 0.00 | 35 | 998.1 |
| 20260504211336 | 80 | 292 | 2.0 | 11.0 | 0.00 | 0.00 | 0.00 | 34 | 998.1 |
| 20260504210818 | 81 | 265 | 1.0 | 6.0 | 0.00 | 0.00 | 0.00 | 32 | 998.0 |
| 20260504210322 | 81 | 297 | 1.0 | 6.0 | 0.00 | 0.00 | 0.00 | 32 | 998.1 |
| 20260504205847 | 81 | 252 | 2.0 | 5.0 | 0.00 | 0.00 | 0.00 | 30 | 998.1 |
| 20260504205328 | 81 | 258 | 1.0 | 6.0 | 0.00 | 0.00 | 0.00 | 31 | 998.2 |
| 20260504204833 | 81 | 291 | 2.0 | 6.0 | 0.00 | 0.00 | 0.00 | 31 | 998.2 |